Theta_e
317 317 317 317 317 317 317 317 317 317 316 316 316 316 316 316 317 316 315 315 315 315 314 314 312 313 306 294 294 303 307 304 302 300 296 294 292 290 286 287 287 284 286 289 289 288 286
319 319 319 319 319 319 318 318 318 318 317 317 316 316 316 316 317 317 315 315 314 313 312 313 311 312 299 290 299 301 301 301 300 298 295 295 292 292 288 287 285 288 288 287 288 288 288
320 320 320 320 321 321 321 320 319 319 319 318 317 316 316 316 316 316 315 314 311 312 311 312 311 308 297 294 298 300 300 299 300 299 295 296 295 292 290 287 290 288 283 286 287 288 285
321 321 322 322 322 322 321 321 320 320 319 318 317 316 316 316 316 316 314 311 309 311 312 310 310 302 289 299 296 299 300 297 299 300 298 298 298 293 290 290 288 283 282 278 286 286 286
322 321 321 321 321 322 322 321 321 321 320 319 317 317 317 317 316 316 312 309 309 310 309 310 301 296 289 302 295 298 298 296 297 298 298 298 296 290 289 283 280 280 277 278 281 286 284
320 319 319 320 321 321 321 321 321 321 320 319 318 317 317 317 316 315 312 308 308 307 305 304 299 288 292 291 295 297 297 298 295 294 294 292 289 283 282 280 272 277 276 278 277 283 283
318 317 316 316 316 318 317 317 317 317 316 317 317 318 317 317 316 314 305 299 292 292 294 290 290 289 291 293 296 294 297 295 294 291 284 289 282 280 282 283 283 280 277 276 280 285 280
315 316 316 316 315 315 314 314 314 314 314 314 314 315 317 317 316 312 301 293 292 291 286 293 292 291 293 293 289 292 296 289 288 283 286 283 280 285 287 286 283 280 277 276 280 283 280
315 314 314 314 313 312 312 312 312 312 311 312 312 313 314 317 315 302 294 294 300 298 287 290 290 290 290 291 288 289 292 290 286 284 284 281 285 288 285 282 281 279 278 277 277 279 279
314 314 313 313 312 311 311 311 310 310 309 310 311 312 314 314 306 298 292 299 301 301 282 286 286 289 291 291 285 292 292 289 287 283 284 284 287 285 282 281 281 276 281 279 278 272 269
311 312 311 310 310 310 310 310 310 309 310 310 311 312 312 308 302 297 298 302 302 297 274 286 285 293 291 286 287 287 292 288 283 285 284 282 283 281 280 282 283 277 281 278 277 270 269
309 309 309 308 308 308 308 309 308 308 308 309 309 311 310 305 300 297 300 300 296 283 276 281 285 285 284 286 287 288 288 289 289 284 285 284 286 284 283 284 283 282 279 279 275 273 266
308 307 307 307 307 306 306 306 306 307 307 309 309 306 303 300 295 299 299 295 286 283 288 281 280 285 283 282 284 286 284 283 280 282 281 282 281 283 284 280 281 277 273 264 264 268 265
305 305 305 304 304 305 305 304 304 305 307 311 308 304 300 299 300 299 298 289 279 279 286 286 283 282 281 282 282 284 283 281 284 283 279 278 277 279 283 280 277 276 272 266 260 261 265
302 303 303 303 302 302 303 303 303 303 306 307 307 301 299 298 299 299 296 278 276 285 286 284 286 281 281 281 282 283 281 281 283 283 277 276 277 281 281 281 279 277 272 275 264 262 267
300 301 301 301 301 301 301 301 301 302 305 307 303 297 294 298 297 298 288 281 285 284 286 285 282 285 281 280 280 280 281 283 282 284 284 280 271 280 279 281 280 277 278 269 267 259 258
299 298 299 298 299 299 299 299 300 303 306 308 301 293 295 297 298 293 284 283 285 286 287 284 282 282 281 281 281 281 282 283 284 283 283 280 276 277 278 271 272 272 271 273 272 268 261
298 297 297 297 298 299 299 299 302 304 306 305 299 286 294 298 287 285 285 286 287 284 285 285 282 281 280 282 281 281 282 282 285 284 280 281 278 276 275 273 277 276 269 270 266 264 262
298 299 296 297 299 298 298 299 302 303 305 300 291 290 294 295 279 284 285 284 284 283 283 283 282 284 281 279 278 281 282 284 285 283 281 282 279 273 275 275 276 269 273 272 269 267 262
300 300 298 296 297 298 297 299 301 303 305 302 291 284 287 289 288 285 284 284 283 286 284 286 284 284 280 277 281 278 280 283 284 284 285 284 279 275 273 272 269 266 268 273 272 260 261
299 299 300 299 296 296 296 298 300 301 304 301 293 285 284 283 284 285 284 284 283 282 284 285 281 280 279 275 277 275 281 282 283 285 283 280 275 272 273 272 264 265 265 270 269 265 268
300 298 299 299 299 297 297 297 299 300 303 298 289 287 286 285 286 284 284 283 283 285 285 282 281 283 283 277 280 278 279 280 280 282 281 280 275 273 270 265 262 264 266 269 272 263 269
300 299 298 297 299 297 297 296 298 299 301 296 295 294 291 286 284 283 283 284 284 286 287 289 285 283 279 281 282 283 283 281 280 280 280 278 276 272 267 267 267 266 264 265 263 262 267
301 300 300 298 298 297 296 296 297 298 299 297 295 294 288 280 284 283 285 287 284 284 284 286 286 281 282 285 283 281 280 280 280 280 283 278 276 274 268 269 264 271 259 264 265 264 270
302 301 300 299 298 297 296 295 296 296 298 296 297 294 288 282 284 284 285 285 285 286 285 285 284 285 286 283 278 276 274 269 272 279 279 280 278 272 266 261 270 274 265 266 268 270 270
303 303 301 300 299 297 297 296 295 295 297 296 297 298 293 285 280 286 284 284 282 282 282 282 282 285 283 281 278 265 265 267 269 273 280 280 278 273 270 264 261 271 269 270 266 270 267
301 301 302 301 299 298 298 297 296 295 295 292 294 296 294 286 287 286 284 284 285 284 282 281 281 281 281 279 271 268 269 271 270 272 271 273 273 269 266 263 268 273 274 277 269 272 265
301 301 301 301 301 300 299 298 297 295 294 290 292 296 292 286 281 288 289 285 285 284 281 281 281 278 276 274 272 272 270 272 271 276 274 273 271 269 266 263 266 273 276 273 276 269 266
301 300 300 300 300 301 300 299 298 296 294 292 285 294 295 287 280 290 290 290 290 290 287 284 283 282 281 278 273 273 269 269 270 272 279 274 278 275 274 274 277 275 277 275 270 274 271
Wind_Speed
3 2 2 2 3 4 5 6 7 8 8 9 10 10 11 13 13 14 14 13 11 10 8 6 4 4 3 1 3 3 1 4 4 3 3 3 4 3 1 2 1 3 3 4 3 4 4
5 4 4 4 4 4 5 6 7 7 8 8 9 10 11 13 14 15 15 15 12 10 5 4 3 2 0 3 5 3 1 3 5 4 5 5 2 3 3 0 3 2 5 8 7 4 4
5 4 5 5 6 5 5 6 7 7 8 8 8 9 11 13 14 16 17 15 13 7 1 4 2 1 2 5 5 2 1 2 3 3 3 3 3 2 2 2 3 2 6 7 7 5 3
5 5 6 7 7 6 6 6 7 7 7 8 8 8 10 12 14 16 16 14 8 3 2 3 1 1 4 2 3 4 1 2 1 3 3 1 2 1 0 2 3 2 1 4 2 8 2
4 3 5 6 7 7 7 7 7 7 8 7 8 9 10 12 14 15 14 11 4 1 1 3 1 3 5 0 1 2 3 2 3 1 0 1 1 2 2 2 4 2 4 4 3 8 5
7 8 10 11 11 9 8 8 6 9 10 6 8 8 10 12 14 17 15 3 2 1 3 3 3 2 1 1 2 2 1 1 0 1 0 0 1 2 2 3 5 3 4 4 5 3 5
12 8 10 10 11 11 11 11 11 11 13 12 11 9 9 11 14 17 8 2 5 2 1 6 2 1 3 1 1 1 2 1 1 1 3 3 2 6 7 8 2 3 2 6 7 7 5
10 7 8 9 10 12 12 13 13 13 14 14 14 14 11 10 12 15 3 5 2 2 8 4 2 2 2 1 1 1 1 1 2 3 4 2 6 3 4 3 2 2 3 7 7 3 4
8 8 7 9 10 10 11 12 12 14 14 14 14 14 13 10 12 4 6 2 2 0 1 2 2 2 1 1 1 2 1 1 3 3 5 6 1 5 2 2 3 4 5 4 5 7 3
6 5 7 8 9 8 8 9 10 11 13 15 16 15 14 10 2 0 3 0 1 1 4 2 1 2 1 1 1 1 1 1 2 3 2 5 2 3 4 4 5 3 2 1 3 6 3
7 6 7 8 8 9 7 6 9 14 15 15 16 16 3 5 2 2 2 4 1 1 5 1 1 2 2 0 1 0 2 1 4 2 3 3 3 3 4 4 5 7 4 3 1 3 5
6 6 6 8 8 9 11 11 13 14 16 17 16 9 5 2 3 1 4 4 2 5 8 1 3 2 1 4 1 1 1 1 2 3 3 5 1 1 3 1 2 2 4 3 3 3 2
10 10 10 9 8 9 11 13 15 17 19 22 6 6 3 2 1 4 3 2 2 4 4 4 2 1 3 3 3 1 0 2 3 0 1 1 3 2 2 1 1 6 5 5 7 2 7
9 8 9 9 11 12 13 12 14 17 22 9 8 3 5 2 3 4 1 4 2 4 2 2 3 2 3 2 1 1 0 3 4 1 2 4 4 3 1 2 5 2 6 7 6 3 6
5 8 8 7 9 11 11 13 13 15 17 9 2 1 2 4 4 2 2 2 8 2 1 5 7 2 3 2 2 2 3 4 3 9 5 0 3 2 3 1 2 2 1 2 5 2 1
7 7 8 9 8 10 10 13 12 13 16 16 0 1 2 4 4 1 3 5 3 1 2 2 2 0 2 0 1 1 3 3 2 4 2 2 4 2 2 2 3 1 4 3 4 3 6
6 6 8 8 9 9 9 11 10 12 15 12 1 0 1 3 3 2 3 4 1 2 1 2 2 3 2 3 2 1 3 5 5 5 3 3 2 1 2 4 8 1 1 1 3 5 6
6 6 5 6 7 8 9 10 12 13 17 1 1 1 2 3 2 0 2 2 2 3 1 1 1 1 1 2 3 3 2 1 9 5 3 1 2 4 4 3 3 1 6 5 6 6 3
7 6 4 6 7 7 9 10 13 13 12 4 1 2 2 2 2 3 1 2 1 2 2 4 3 4 1 2 4 2 1 3 1 1 2 1 2 4 1 1 3 1 3 3 5 4 7
9 6 6 4 6 7 8 9 12 13 12 5 2 1 2 2 1 1 3 2 2 1 0 1 1 0 1 2 4 3 2 1 3 2 3 0 2 5 5 5 4 2 3 5 6 4 4
9 8 7 7 4 5 6 9 11 12 16 3 2 3 3 2 3 4 2 1 1 2 2 3 2 4 3 3 2 4 3 2 2 3 2 1 3 2 6 8 5 6 7 9 11 7 7
13 10 10 7 7 4 4 8 11 12 16 2 3 3 1 2 1 4 3 3 2 1 3 2 3 2 6 5 4 3 1 3 0 3 2 1 2 2 7 1 3 6 9 10 10 3 13
13 13 10 9 7 4 5 5 9 12 11 1 0 1 2 4 3 3 3 4 5 1 3 1 3 1 4 5 2 3 3 3 4 1 1 1 1 3 7 2 3 8 10 13 6 4 8
17 15 13 9 9 5 5 4 7 9 8 2 0 0 2 4 3 4 2 2 2 1 2 2 2 2 1 3 5 2 3 4 2 3 3 2 2 1 6 7 3 8 3 5 7 7 16
22 19 15 12 9 8 5 2 4 7 8 1 2 1 1 0 1 3 2 2 2 2 2 1 2 2 3 3 3 3 2 5 3 1 2 1 2 3 1 3 10 2 4 8 8 9 11
18 17 17 15 11 8 6 4 1 5 8 1 1 1 1 3 5 2 2 3 2 2 2 1 2 3 1 1 1 2 1 3 2 1 1 3 1 1 1 1 5 8 5 5 4 6 3
15 16 18 18 13 11 9 6 4 1 5 2 1 2 1 2 2 2 1 2 3 1 1 2 3 1 2 1 1 1 3 2 1 2 4 2 2 4 2 4 12 7 4 5 7 10 3
16 15 15 15 19 13 12 9 7 4 1 3 1 2 2 1 4 1 2 3 2 2 2 2 1 1 2 1 1 2 1 3 1 3 5 6 6 4 2 1 10 5 4 5 8 4 3
16 14 12 10 15 16 14 12 10 7 3 4 1 2 1 2 5 1 3 2 2 2 3 3 1 3 3 1 1 1 3 1 3 4 3 4 6 4 10 9 6 7 8 6 6 6 5
Wind_Direction
231 245 285 329 342 342 343 345 349 352 352 354 355 354 353 348 344 341 337 334 329 321 306 295 299 319 352 271 241 178 231 336 294 292 39 23 5 348 2 78 78 188 311 337 319 280 232
234 256 278 292 300 314 323 327 334 339 342 347 349 346 349 344 342 339 334 330 328 321 294 245 253 325 269 261 134 94 163 342 3 11 48 45 35 324 288 229 157 277 299 284 270 226 241
245 257 270 281 286 287 286 300 313 323 330 335 336 336 340 339 338 336 335 330 325 321 246 200 212 228 286 243 118 97 100 103 1 30 106 58 8 31 346 280 326 311 313 304 224 204 220
253 270 283 286 278 269 270 281 298 309 316 320 324 329 327 328 330 333 334 331 326 331 161 169 206 276 242 51 208 65 172 142 64 35 81 93 1 313 216 284 307 298 232 330 262 139 166
289 27 13 344 325 312 269 257 280 295 299 310 317 323 323 323 325 329 329 329 319 292 207 179 133 162 275 37 156 124 34 95 123 186 101 253 21 103 51 88 354 292 258 241 313 196 143
73 60 52 39 36 29 26 10 333 302 295 298 309 319 322 323 328 329 328 270 303 85 262 220 278 18 208 138 133 100 343 2 255 188 206 215 69 68 16 107 229 201 268 295 267 261 214
69 49 58 49 45 42 40 40 26 23 21 12 349 328 320 322 331 331 352 7 15 355 5 209 196 267 114 97 0 115 32 301 254 191 204 226 89 216 215 214 171 138 215 247 277 280 283
66 43 48 57 55 53 48 41 32 25 20 2 357 352 321 317 331 329 21 60 80 212 311 352 109 101 86 200 228 135 8 163 192 244 167 62 234 214 128 125 155 156 275 275 281 62 344
62 48 48 58 59 52 47 43 33 25 13 1 348 342 338 311 323 23 95 86 314 172 263 347 45 46 81 147 310 117 283 193 248 246 206 190 141 137 153 225 264 229 208 245 246 338 287
50 61 57 47 37 30 36 39 35 22 10 354 341 333 328 311 346 272 55 244 203 67 46 261 73 10 8 327 250 337 16 133 264 266 257 241 152 179 208 238 152 292 65 19 335 39 288
33 42 55 46 32 35 20 25 29 10 360 351 336 328 345 19 274 74 308 342 16 81 350 328 117 265 18 117 104 197 333 108 211 223 99 253 178 194 205 221 142 226 12 297 195 124 36
49 57 53 51 45 36 18 17 23 357 342 338 326 332 323 356 62 325 325 340 72 37 257 25 152 186 102 163 226 135 249 273 53 302 223 247 59 205 219 49 165 15 20 51 71 94 336
47 42 38 42 38 33 23 19 15 351 338 323 291 52 60 22 191 316 353 44 39 218 344 294 290 333 347 224 176 121 90 264 233 345 300 278 196 85 84 107 15 60 59 334 355 328 225
25 32 26 22 13 20 17 11 2 350 349 37 111 61 45 65 325 335 268 44 170 251 285 313 339 264 244 14 47 105 325 295 225 29 285 204 287 161 20 181 168 162 146 152 245 265 276
351 3 8 349 6 10 7 0 349 343 345 349 355 44 45 344 353 314 94 97 206 249 189 347 306 51 303 77 339 12 242 221 145 201 191 292 269 103 63 37 87 246 85 153 91 96 334
324 344 341 351 1 346 347 348 329 334 334 336 342 103 43 319 4 17 95 234 194 80 121 123 265 140 314 186 8 205 267 328 70 17 108 299 324 154 128 55 16 112 166 60 9 1 302
316 329 329 333 340 337 349 340 327 331 332 331 190 11 320 358 41 56 223 224 164 105 97 161 262 297 272 308 232 241 275 27 11 303 339 135 132 161 79 190 174 74 87 50 118 136 181
296 304 315 330 335 342 353 347 342 342 340 38 262 218 295 28 75 243 204 216 164 145 113 115 244 210 253 304 250 238 276 134 351 333 312 190 210 256 238 242 241 164 179 150 124 261 232
274 273 309 318 337 343 344 343 347 344 350 304 132 105 339 61 160 215 136 284 215 130 169 177 224 207 128 271 294 250 348 185 320 306 274 270 230 310 266 54 8 182 222 150 118 73 217
259 273 258 286 317 339 344 337 353 343 343 314 119 203 344 42 49 256 193 218 157 116 228 227 255 132 168 251 234 291 313 50 355 281 279 237 276 224 223 206 131 199 216 194 138 129 214
241 250 251 254 252 295 328 326 348 345 336 291 199 230 183 166 196 197 153 107 197 180 209 217 215 204 182 288 204 230 227 256 183 292 249 272 252 253 267 252 190 216 190 193 201 200 190
242 255 249 260 250 294 307 322 343 344 337 239 150 170 324 101 73 183 184 197 240 155 166 215 218 168 204 221 223 263 181 226 280 186 268 71 292 343 281 19 164 260 219 205 216 262 275
232 237 240 243 238 224 271 325 345 351 345 201 149 0 137 154 170 161 205 192 184 195 210 261 219 250 228 242 306 285 256 323 296 324 209 214 323 8 270 330 305 307 219 181 192 219 161
221 227 235 240 234 233 261 306 339 350 12 263 141 173 159 234 206 202 188 143 128 226 229 155 158 186 347 332 305 309 294 263 250 294 170 203 107 211 275 349 349 244 215 169 185 228 219
225 217 219 227 228 236 250 265 333 349 347 341 339 356 98 199 69 292 197 154 102 262 233 203 71 20 345 318 325 320 336 23 321 238 196 84 143 276 280 235 289 359 232 156 169 281 202
218 224 228 215 220 226 223 219 273 350 353 0 62 311 32 103 253 280 143 164 184 273 178 132 62 9 342 320 338 84 284 225 332 73 280 184 160 171 340 318 229 238 253 177 151 328 227
205 208 207 224 215 213 215 212 211 294 358 20 344 23 83 142 276 96 179 156 119 152 191 136 141 128 20 314 21 140 290 154 346 226 176 178 196 212 220 278 284 251 211 166 70 238 253
215 209 210 220 207 219 207 210 203 196 11 57 81 36 83 148 265 171 323 129 80 179 151 179 140 348 53 35 120 278 122 244 346 213 187 186 168 200 122 188 285 162 108 146 221 298 218
204 193 187 188 206 219 217 210 200 194 173 92 87 357 26 138 223 90 193 267 317 333 142 175 213 161 196 109 330 40 325 46 221 278 169 226 200 200 199 222 230 209 218 234 183 202 237